THOR ABLESTAR DEB

Satellite information

Favourite Embed

Satellite Type and Status

DEBRISIN ORBIT

Key statistics

Satellite THOR ABLESTAR DEB at a glance.

Uptime

23544

Days in orbit

Revolutions

≈ 14.1

Per day

Orbit

LEO

Low Earth Orbit

Inclination

66.3

Latest

Satellite identification and parameters

Extended collection of information and parameters for THOR ABLESTAR DEB.

Object identification

Identified? True

Debris? True

Object name: THOR ABLESTAR DEB

International designator: 1961-015JB

Object number (NORAD): 3740

Object ID (CCSDS): 3740

Country: UNITED STATES OF AMERICA (US)

Current information (Y/N): Y

RCS size: SMALL

Orbital parameters

Period: 101.969 minutes

Inclination: 66.3312 deg

SMA: 7230.014 km

Apoapsis: 910.869 km

Periapsis: 792.889 km

RAAN: 171.643 deg

Eccentricy: 0.008159

Argument of periapsis: 148.0948 deg

Mean anomaly: 212.5117 deg

Mean motion: 14.12193004 rev/day

Mean motion (dot): 0.00000706 rev/day2

B* drag term: 0.00041667 1/REarth

Two-line elements (TLE)

Creation date: Dec. 12, 2025, 7:06 a.m.

Reference frame: TEME

Reference center: EARTH

Epoch: Dec. 11, 2025, 9:23 p.m. UTC

TLE line 0: 0 THOR ABLESTAR DEB

TLE line 1: 1 3740U 61015JB 25345.89156801 .00000706 00000-0 41667-3 0 9994

TLE line 2: 2 3740 66.3312 171.6430 0081590 148.0948 212.5117 14.12193004295589

Live tracking on map

Real-time ground track for satellite THOR ABLESTAR DEB.

In-orbit conjunctions

A list of the most updated potential collisions computed for object THOR ABLESTAR DEB.

Target Orbit TCA Probability of collision Miss distance Type
ADEOS 2 SSO 2025-07-05 03:55:39 0.0001043883 355.0 (m) PAYLOAD
FENGYUN 1C DEB SSO 2025-06-23 16:36:48 0.0001251555 280.0 (m) DEBRIS

Associated space launch

THOR ABLESTAR DEB was lifted into orbit during the mission ‘Thor DM-21 Ablestar | Transit 4A & Injun-1 & Solrad 3’, on board a Thor DM-21 Ablestar space rocket.

The launch took place on June 29, 1961, 4:23 a.m. from Space Launch Complex 17B.

For more information about the launch, click the button.

Launch to space Thor DM-21 Ablestar | Transit 4A & Injun-1 & Solrad 3
Thor DM-21 Ablestar | Transit 4A & Injun-1 & Solrad 3

Agency: N/A

Status: Launch Successful

Launch date: June 29, 1961, 4:23 a.m. UTC

Rocket: Thor DM-21 Ablestar

Launch pad: Space Launch Complex 17B

Location: Cape Canaveral SFS, FL, USA

...

Latest news about this satellite

There are no fresh news available about this satellite. Check back as we update our databases every day.


Newsletter sign-up

Weekly statistics, charts and insights to help you stay on top of the space industry.